This is the latest recevied weather packets stored in our database for station/object AA6HF. If no packets are shown the sender has not sent any weather packets the latest 10 day(s).
| Time | Temp. | Humidity | Pressure | Rain* | Wind** | Luminosity | Snow |
|---|---|---|---|---|---|---|---|
| 1788248300 | 27.22° C | 23% | 1008.2 hPa | 0 mm | - | - | - |
| 1788248000 | 27.22° C | 22% | 1008.3 hPa | 0 mm | - | - | - |
| 1788247700 | 27.22° C | 22% | 1008.3 hPa | 0 mm | - | - | - |
| 1788247400 | 27.78° C | 22% | 1008.3 hPa | 0 mm | - | - | - |
| 1788247100 | 27.78° C | 21% | 1008.3 hPa | 0 mm | - | - | - |
| 1788246800 | 27.78° C | 23% | 1008.2 hPa | 0 mm | - | - | - |
| 1788246500 | 27.78° C | 23% | 1008.1 hPa | 0 mm | - | - | - |
| 1788246200 | 27.78° C | 22% | 1008.2 hPa | 0 mm | - | - | - |
| 1788245901 | 27.78° C | 24% | 1008.3 hPa | 0 mm | - | - | - |
| 1788245601 | 27.78° C | 25% | 1008.3 hPa | 0 mm | - | - | - |
| 1788245301 | 27.78° C | 26% | 1008.2 hPa | 0 mm | - | - | - |
| 1788245001 | 27.22° C | 26% | 1008.1 hPa | 0 mm | - | - | - |
| 1788244701 | 27.22° C | 26% | 1008 hPa | 0 mm | - | - | - |
| 1788244401 | 27.78° C | 26% | 1008 hPa | 0 mm | - | - | - |
| 1788244101 | 27.78° C | 25% | 1008 hPa | 0 mm | - | - | - |
| 1788243801 | 27.78° C | 24% | 1008 hPa | 0 mm | - | - | - |
| 1788243501 | 28.33° C | 23% | 1008.1 hPa | 0 mm | - | - | - |
| 1788243201 | 28.89° C | 23% | 1008 hPa | 0 mm | - | - | - |
| 1788242901 | 28.89° C | 22% | 1008 hPa | 0 mm | - | - | - |
| 1788242601 | 29.44° C | 22% | 1008 hPa | 0 mm | - | - | - |
| 1788242301 | 30° C | 21% | 1007.9 hPa | 0 mm | - | - | - |
| 1788242001 | 30° C | 22% | 1007.9 hPa | 0 mm | - | - | - |
| 1788241701 | 30° C | 22% | 1008.1 hPa | 0 mm | - | - | - |
| 1788241401 | 30° C | 22% | 1008 hPa | 0 mm | - | - | - |
| 1788241101 | 30° C | 22% | 1008.1 hPa | 0 mm | - | - | - |
* Rain latest hour (hover to see other rain measurements)
** Current wind speed in m/s (hover to see current wind gust speed)